Greenville, SC

4:24 AM EST on February 07, 2016 (GMT -0500)
Greenville Downtown

Weather History for KGMU - December, 2014

Change the Weather History Date:

Friday, December 12, 2014

  Actual Average Record
Temperature  
Mean Temperature 46 °F -  
Max Temperature 63 °F 51 °F 75 °F (2007)
Min Temperature 30 °F 35 °F 24 °F (1993)
Degree Days  
Heating Degree Days 18    
Moisture  
Dew Point 14 °F    
Average Humidity 31    
Maximum Humidity 54    
Minimum Humidity 14    
Precipitation  
Precipitation 0.00 in - - ()
Sea Level Pressure  
Sea Level Pressure 30.22 in    
Wind  
Wind Speed 7 mph (NW)    
Max Wind Speed 15 mph    
Max Gust Speed -    
Visibility 10 miles    
Events      
Averages and records for this station are not official NWS values.
T = Trace of Precipitation, MM = Missing Value Source: NWS Daily Summary

Daily Weather History Graph

Daily Weather History Graph

Search for Another Location

Airport or City:

Trip Planner

Search our weather history database for the weather conditions in past years. The results will help you decide how hot, cold, wet, or windy it might be!

Date:

Astronomy

Dec. 12, 2014 Rise Set
Actual Time 7:27 AM EST 5:18 PM EST
Civil Twilight 6:59 AM EST 5:46 PM EST
Nautical Twilight 6:27 AM EST 6:18 PM EST
Astronomical Twilight 5:57 AM EST 6:49 PM EST
Moon 11:13 PM EST (12/12) 11:31 AM EST (12/12)
Length of Visible Light 10h 47m
Length of Day
9h 51m
Waning Gibbous, 67% of the Moon is Illuminated
Dec 12
Waning Gibbous
Dec 14
Last Quarter
Dec 21
New
Dec 28
First Quarter
Jan 4
Full

Hourly Weather History & Observations

Time (EST) Temp. Windchill Dew Point Humidity Pressure Visibility Wind Dir Wind Speed Gust Speed Precip Events Conditions
12:53 AM 39.0 °F 30.6 °F 15.1 °F 38% 30.19 in 10.0 mi North 15.0 mph - N/A   Clear
1:53 AM 37.9 °F 31.5 °F 12.9 °F 36% 30.19 in 10.0 mi North 9.2 mph - N/A   Clear
2:53 AM 39.0 °F 32.3 °F 10.0 °F 30% 30.19 in 10.0 mi North 10.4 mph - N/A   Clear
3:53 AM 39.9 °F 33.9 °F 8.1 °F 27% 30.19 in 10.0 mi North 9.2 mph - N/A   Clear
4:53 AM 34.0 °F 31.0 °F 12.9 °F 42% 30.22 in 10.0 mi WSW 3.5 mph - N/A   Clear
5:53 AM 34.0 °F - 12.9 °F 42% 30.23 in 10.0 mi Calm Calm - N/A   Clear
6:53 AM 30.9 °F 27.5 °F 16.0 °F 54% 30.25 in 10.0 mi West 3.5 mph - N/A   Clear
7:53 AM 30.9 °F - 15.1 °F 52% 30.28 in 9.0 mi Calm Calm - N/A   Clear
8:53 AM 39.9 °F - 18.0 °F 41% 30.29 in 10.0 mi Calm Calm - N/A   Clear
9:53 AM 45.0 °F 42.6 °F 17.1 °F 33% 30.31 in 10.0 mi West 4.6 mph - N/A   Clear
10:53 AM 50.0 °F - 14.0 °F 24% 30.29 in 10.0 mi WSW 4.6 mph - N/A   Clear
11:53 AM 55.0 °F - 17.1 °F 23% 30.25 in 10.0 mi West 8.1 mph - N/A   Clear
12:53 PM 57.9 °F - 14.0 °F 18% 30.21 in 10.0 mi West 3.5 mph - N/A   Clear
1:53 PM 61.0 °F - 14.0 °F 16% 30.18 in 10.0 mi WSW 4.6 mph - N/A   Clear
2:53 PM 62.1 °F - 14.0 °F 15% 30.17 in 10.0 mi Calm Calm - N/A   Clear
3:53 PM 63.0 °F - 12.9 °F 14% 30.18 in 10.0 mi NNE 3.5 mph - N/A   Clear
4:53 PM 60.1 °F - 12.9 °F 16% 30.19 in 10.0 mi Calm Calm - N/A   Clear
5:53 PM 55.0 °F - 16.0 °F 22% 30.19 in 10.0 mi Calm Calm - N/A   Clear
6:53 PM 50.0 °F - 16.0 °F 26% 30.22 in 10.0 mi North 8.1 mph - N/A   Clear
7:53 PM 46.0 °F 41.4 °F 15.1 °F 29% 30.23 in 10.0 mi North 9.2 mph - N/A   Clear
8:53 PM 48.0 °F - 12.9 °F 24% 30.23 in 10.0 mi North 8.1 mph - N/A   Clear
9:53 PM 46.0 °F - 14.0 °F 28% 30.22 in 10.0 mi Calm Calm - N/A   Clear
10:53 PM 41.0 °F - 17.1 °F 38% 30.21 in 10.0 mi Calm Calm - N/A   Clear
11:53 PM 39.0 °F 36.8 °F 19.0 °F 45% 30.20 in 10.0 mi WNW 3.5 mph - N/A   Clear